Grafton, ND

6:49 AM CDT on July 25, 2017 (GMT -0500)
Grafton Municipal

Weather History for KGAF - March, 2014

Change the Weather History Date:

Friday, March 7, 2014

  Actual Average Record
Temperature  
Mean Temperature 10 °F -  
Max Temperature 19 °F 28 °F 54 °F (1968)
Min Temperature 0 °F 8 °F -22 °F (1955)
Degree Days  
Heating Degree Days 56    
Moisture  
Dew Point 7 °F    
Average Humidity 82    
Maximum Humidity 93    
Minimum Humidity 73    
Precipitation  
Precipitation 0.00 in - - ()
Sea Level Pressure  
Sea Level Pressure 30.12 in    
Wind  
Wind Speed 20 mph (NNW)    
Max Wind Speed 29 mph    
Max Gust Speed 34 mph    
Visibility 7 miles    
Events Rain , Snow    
Averages and records for this station are not official NWS values.
T = Trace of Precipitation, MM = Missing Value Source: NWS Daily Summary

Daily Weather History Graph

Daily Weather History Graph

Search for Another Location

Airport or City:

Trip Planner

Search our weather history database for the weather conditions in past years. The results will help you decide how hot, cold, wet, or windy it might be!

Date:

Astronomy

Mar. 07, 2014 Rise Set
Actual Time 6:58 AM CST 6:22 PM CST
Civil Twilight 6:27 AM CST 6:54 PM CST
Nautical Twilight 5:51 AM CST 7:30 PM CST
Astronomical Twilight 5:14 AM CST 8:07 PM CST
Moon 10:23 AM CST (3/7) 12:57 AM CST (3/7)
Length of Visible Light 12h 26m
Length of Day
11h 23m
Waxing Crescent, 42% of the Moon is Illuminated
Mar 7
Waxing Crescent
Mar 8
First Quarter
Mar 16
Full
Mar 23
Last Quarter
Mar 30
New

Hourly Weather History & Observations

Time (CST) Temp. Windchill Dew Point Humidity Pressure Visibility Wind Dir Wind Speed Gust Speed Precip Events Conditions
12:15 AM 19.4 °F 3.6 °F 17.6 °F 93% 29.79 in 5.0 mi NNW 19.6 mph 28.8 mph N/A   Overcast
12:35 AM 17.6 °F 1.7 °F 15.8 °F 93% 29.80 in 6.0 mi NNW 18.4 mph 26.5 mph N/A   Overcast
12:55 AM 17.6 °F 0.9 °F 15.8 °F 93% 29.81 in 6.0 mi NNW 20.7 mph 26.5 mph N/A   Overcast
1:15 AM 17.6 °F 0.1 °F 15.8 °F 93% 29.81 in 7.0 mi NNW 23.0 mph 26.5 mph N/A   Overcast
1:35 AM 17.6 °F 0.5 °F 14.0 °F 86% 29.82 in 7.0 mi NNW 21.9 mph 27.6 mph N/A   Overcast
1:55 AM 15.8 °F -2.7 °F 14.0 °F 93% 29.83 in 5.0 mi NNW 24.2 mph - N/A   Overcast
2:15 AM 15.8 °F -1.9 °F 14.0 °F 93% 29.84 in 5.0 mi NNW 21.9 mph 27.6 mph N/A   Overcast
2:35 AM 15.8 °F -1.1 °F 12.2 °F 86% 29.87 in 8.0 mi NNW 19.6 mph 26.5 mph N/A   Overcast
2:55 AM 15.8 °F -2.3 °F 10.4 °F 79% 29.88 in 6.0 mi NNW 23.0 mph 31.1 mph N/A   Overcast
3:15 AM 14.0 °F -3.9 °F 10.4 °F 86% 29.88 in 7.0 mi NNW 20.7 mph 27.6 mph N/A   Overcast
3:35 AM 14.0 °F -3.9 °F 10.4 °F 86% 29.89 in 8.0 mi NNW 20.7 mph 27.6 mph N/A   Overcast
3:55 AM 14.0 °F -3.0 °F 10.4 °F 86% 29.91 in 5.0 mi NNW 18.4 mph 31.1 mph N/A Rain Light Freezing Rain
4:15 AM 14.0 °F -3.4 °F 10.4 °F 86% 29.92 in 5.0 mi NNW 19.6 mph 28.8 mph N/A Snow Light Snow
4:35 AM 14.0 °F -4.7 °F 10.4 °F 86% 29.93 in 10.0 mi NNW 23.0 mph 26.5 mph N/A Snow Light Snow
4:55 AM 14.0 °F -5.1 °F 8.6 °F 79% 29.93 in 6.0 mi NNW 24.2 mph 31.1 mph N/A Rain Light Freezing Rain
5:15 AM 14.0 °F -3.9 °F 8.6 °F 79% 29.95 in 4.0 mi NNW 20.7 mph 29.9 mph N/A Snow Light Snow
5:35 AM 14.0 °F -4.3 °F 8.6 °F 79% 29.96 in 4.0 mi NNW 21.9 mph 29.9 mph N/A Snow Light Snow
5:55 AM 12.2 °F -6.7 °F 8.6 °F 85% 29.98 in 5.0 mi NNW 21.9 mph 27.6 mph N/A Snow Light Snow
6:15 AM 12.2 °F -7.1 °F 8.6 °F 85% 29.99 in 6.0 mi NNW 23.0 mph 31.1 mph N/A Snow Light Snow
6:35 AM 12.2 °F -7.1 °F 6.8 °F 79% 30.00 in 9.0 mi NNW 23.0 mph 32.2 mph N/A Rain Light Freezing Rain
6:55 AM 10.4 °F -9.1 °F 8.6 °F 92% 30.01 in 5.0 mi NNW 21.9 mph 32.2 mph N/A Snow Light Snow
7:15 AM 10.4 °F -9.1 °F 6.8 °F 85% 30.02 in 8.0 mi NNW 21.9 mph 28.8 mph N/A Rain Light Freezing Rain
7:35 AM 10.4 °F -9.1 °F 6.8 °F 85% 30.03 in 9.0 mi NNW 21.9 mph 28.8 mph N/A Rain Light Freezing Rain
7:55 AM 10.4 °F -8.2 °F 6.8 °F 85% 30.04 in 9.0 mi NNW 19.6 mph 26.5 mph N/A Rain Light Freezing Rain
8:15 AM 10.4 °F -8.6 °F 6.8 °F 85% 30.06 in 10.0 mi NNW 20.7 mph 24.2 mph N/A Rain Light Freezing Rain
8:35 AM 12.2 °F -7.9 °F 8.6 °F 85% 30.07 in 4.0 mi NNW 25.3 mph 31.1 mph N/A Snow Light Snow
8:55 AM 12.2 °F -8.9 °F 8.6 °F 85% 30.08 in 3.0 mi NNW 28.8 mph 32.2 mph N/A Rain Light Freezing Rain
9:15 AM 12.2 °F -7.5 °F 8.6 °F 85% 30.10 in 3.0 mi NNW 24.2 mph 31.1 mph N/A Rain Light Freezing Rain
9:35 AM 12.2 °F -7.9 °F 8.6 °F 85% 30.11 in 2.0 mi North 25.3 mph 34.5 mph N/A Rain Light Freezing Rain
9:55 AM 12.2 °F -7.9 °F 8.6 °F 85% 30.11 in 2.5 mi North 25.3 mph 34.5 mph N/A Rain Light Freezing Rain
10:15 AM 14.0 °F -5.1 °F 8.6 °F 79% 30.12 in 2.0 mi North 24.2 mph 34.5 mph N/A Rain Light Freezing Rain
10:35 AM 14.0 °F -5.1 °F 8.6 °F 79% 30.13 in 3.0 mi NNW 24.2 mph 34.5 mph N/A Rain Light Freezing Rain
10:55 AM 14.0 °F -6.5 °F 8.6 °F 79% 30.14 in 2.5 mi NNW 28.8 mph 34.5 mph N/A Rain Light Freezing Rain
11:15 AM 14.0 °F -6.2 °F 8.6 °F 79% 30.16 in 3.0 mi North 27.6 mph 32.2 mph N/A Rain Light Freezing Rain
11:35 AM 14.0 °F -5.5 °F 8.6 °F 79% 30.16 in 1.8 mi North 25.3 mph 32.2 mph N/A Snow Light Snow
11:55 AM 14.0 °F -5.1 °F 8.6 °F 79% 30.18 in 2.0 mi North 24.2 mph 29.9 mph N/A Snow Light Snow
12:15 PM 14.0 °F -5.8 °F 8.6 °F 79% 30.18 in 3.0 mi NNW 26.5 mph 31.1 mph N/A Rain Light Freezing Rain
12:35 PM 14.0 °F -4.7 °F 8.6 °F 79% 30.20 in 4.0 mi NNW 23.0 mph 29.9 mph N/A Rain Light Freezing Rain
12:55 PM 14.0 °F -3.9 °F 8.6 °F 79% 30.20 in 5.0 mi North 20.7 mph 27.6 mph N/A   Overcast
1:15 PM 14.0 °F -4.7 °F 8.6 °F 79% 30.20 in 5.0 mi North 23.0 mph 29.9 mph N/A   Haze
1:35 PM 14.0 °F -4.3 °F 8.6 °F 79% 30.21 in 7.0 mi North 21.9 mph 27.6 mph N/A   Overcast
1:55 PM 14.0 °F -3.4 °F 8.6 °F 79% 30.22 in 9.0 mi North 19.6 mph 28.8 mph N/A   Mostly Cloudy
2:15 PM 14.0 °F -4.7 °F 8.6 °F 79% 30.23 in 9.0 mi NNW 23.0 mph 26.5 mph N/A   Mostly Cloudy
2:35 PM 14.0 °F -3.9 °F 8.6 °F 79% 30.23 in 8.0 mi North 20.7 mph - N/A   Mostly Cloudy
2:55 PM 14.0 °F -3.4 °F 8.6 °F 79% 30.24 in 10.0 mi North 19.6 mph 25.3 mph N/A   Overcast
5:35 PM 12.2 °F -2.5 °F 5.0 °F 73% 30.28 in 10.0 mi North 12.7 mph - N/A   Clear
5:55 PM 12.2 °F -1.8 °F 5.0 °F 73% 30.28 in 10.0 mi NNW 11.5 mph 17.3 mph N/A   Clear
6:15 PM 10.4 °F -4.8 °F 5.0 °F 79% 30.29 in 10.0 mi NNW 12.7 mph - N/A   Clear
6:35 PM 10.4 °F -4.1 °F 3.2 °F 73% 30.30 in 10.0 mi NNW 11.5 mph - N/A   Clear
6:55 PM 8.6 °F -5.5 °F 1.4 °F 73% 30.31 in 10.0 mi NNW 10.4 mph - N/A   Clear
7:15 PM 8.6 °F -4.7 °F 1.4 °F 73% 30.32 in 10.0 mi NNW 9.2 mph - N/A   Clear
7:35 PM 8.6 °F -4.7 °F 1.4 °F 73% 30.32 in 10.0 mi NW 9.2 mph - N/A   Clear
7:55 PM 6.8 °F -7.8 °F 1.4 °F 79% 30.32 in 10.0 mi NNW 10.4 mph - N/A   Clear
8:15 PM 6.8 °F -6.9 °F 1.4 °F 79% 30.32 in 10.0 mi NNW 9.2 mph - N/A   Clear
8:35 PM 6.8 °F -5.9 °F 1.4 °F 79% 30.32 in 10.0 mi NNW 8.1 mph - N/A   Clear
8:55 PM 6.8 °F -3.5 °F 1.4 °F 79% 30.32 in 10.0 mi NNW 5.8 mph - N/A   Clear
9:15 PM 5.0 °F -6.9 °F -0.4 °F 78% 30.33 in 10.0 mi NW 6.9 mph - N/A   Clear
9:35 PM 5.0 °F -6.9 °F -0.4 °F 78% 30.33 in 10.0 mi NW 6.9 mph - N/A   Clear
9:55 PM 5.0 °F -5.6 °F -0.4 °F 78% 30.33 in 10.0 mi NW 5.8 mph - N/A   Clear
10:15 PM 5.0 °F -5.6 °F -0.4 °F 78% 30.34 in 10.0 mi NW 5.8 mph - N/A   Clear
10:35 PM 5.0 °F -6.9 °F -0.4 °F 78% 30.34 in 10.0 mi NW 6.9 mph - N/A   Clear
10:55 PM 3.2 °F -7.8 °F -0.4 °F 85% 30.35 in 10.0 mi NW 5.8 mph - N/A   Clear
11:15 PM 1.4 °F -6.2 °F -2.2 °F 85% 30.35 in 10.0 mi WNW 3.5 mph - N/A   Clear
11:35 PM -0.4 °F -10.4 °F -4.0 °F 85% 30.35 in 10.0 mi West 4.6 mph - N/A   Clear
11:55 PM 1.4 °F -9.9 °F -0.4 °F 92% 30.35 in 10.0 mi WNW 5.8 mph - N/A   Clear